KSLV-II R/B, 56750

Orbit data source: Space-Track

KSLV-II R/B, 56750 is space debris in SSO originally from a launch on Thu, 25 May 2023 UTC launched from the Naro Space Center, South Korea (NSC). Debris objects in space refer to the collection of defunct objects orbiting the Earth. Examples of debris include non-operational satellites, rocket bodies, and fragments generated from explosions, collisions, or faulty payload assembly.

Loading next visibility...
Identifier
56750, 2023-072H
Orbit
SSO
Country
Flag of KRKR / SKOR
Related business
Manufacturer
KARI
Mission
Spacecraft
Bus & Motor
Unknown
Mass
1,250 kg wet, 1,250 kg dry
Launch date (UTC)
2023-05-25 (3 years ago)
Launch vehicle
Unknown
Launch site
Naro Space Center, South Korea (NSC)
Object type
Payload
Rocket body
Debris
Shape & HBR
Cyl, 1.8 m
Radar Cross Section
10.006 m², Large (>1 m²)

Expand to show TLE details & history
Last TLE update: 12 hours ago

TLE from 12 hours ago
0 KSLV-II R/B
1 56750U 23072H   26126.13138755  .00006591  00000-0  20062-3 0  9991
2 56750  97.4929 332.2624 0026458 110.7023 249.7060 15.34007417163949
Epoch: 2026-05-06T03:09Z
TLE epoch observation values (Epoch: 2026-05-06T03:09:11.884Z)
Latitude
0.00007°
Longitude
60.96659°
Altitude
473.299 km
Speed
7.626 km/s
True Right ascension
22h 09m 02s
True Declination
0° 00' 00"
Sunlit
Object was in daylight at epoch
Visualization orbit readout
Latitude
Unknown
Longitude
Unknown
Altitude
Unknown
Speed
Unknown
Apparent Right ascension
Unknown
Apparent Declination
Unknown
Sunlit
N/A
Visualization observer readout
Local Sidereal Time
22:37:55
Azimuth
Unknown
Elevation
Unknown
Doppler factor
Unknown
Orbital elements
Apogee altitude
478.916 km
Perigee altitude
442.727 km
Semi-major axis
6,838.958 km
Eccentricity
0.00265
Inclination
97.4929°
RAAN
332.2624°
Arg. of periapsis
110.7023°
True anomaly
249.42196°
Mean anomaly
249.706°
Eccentric anomaly
249.56395°
Mean motion
3.83759 °/min
Orbital period
93.81 mins
BSTAR
0.00020062
Loading maneuver chart data...
Computing Atmospheric mass density...
Loading historical data...
Loading historical data...
Loading historical data...
Loading historical data...
Loading historical data...
Loading historical data...
Loading historical data...

Documentation

Showing up to 5 results
|